This is the latest recevied weather packets stored in our database for station/object W5GMO. If no packets are shown the sender has not sent any weather packets the latest 10 day(s).
| Time | Temp. | Humidity | Pressure | Rain* | Wind** | Luminosity | Snow |
|---|---|---|---|---|---|---|---|
| 1788180604 | 25° C | 1% | 1020.1 hPa | 0 mm | - | 129 W/m² | - |
| 1788180300 | 25° C | 1% | 1020 hPa | 0 mm | - | 154 W/m² | - |
| 1788179996 | 24.44° C | 1% | 1019.9 hPa | 0 mm | - | 188 W/m² | - |
| 1788179695 | 24.44° C | 1% | 1020.1 hPa | 0 mm | - | 140 W/m² | - |
| 1788179402 | 24.44° C | 1% | 1019.9 hPa | 0 mm | - | 104 W/m² | - |
| 1788179085 | 24.44° C | 1% | 1019.9 hPa | 0 mm | - | 125 W/m² | - |
| 1788178780 | 23.89° C | 1% | 1019.9 hPa | 0 mm | - | 93 W/m² | - |
| 1788178476 | 23.89° C | 1% | 1019.8 hPa | 0 mm | - | 119 W/m² | - |
| 1788178172 | 23.89° C | 1% | 1019.8 hPa | 0 mm | - | 131 W/m² | - |
| 1788177866 | 23.89° C | 1% | 1019.7 hPa | 0 mm | - | 96 W/m² | - |
| 1788177566 | 23.89° C | 1% | 1019.7 hPa | 0 mm | - | 78 W/m² | - |
| 1788177262 | 23.33° C | 1% | 1019.6 hPa | 0 mm | - | 97 W/m² | - |
| 1788176961 | 23.33° C | 1% | 1019.8 hPa | 0 mm | - | 62 W/m² | - |
| 1788176660 | 23.33° C | 1% | 1019.9 hPa | 0 mm | - | 46 W/m² | - |
| 1788176356 | 22.78° C | 1% | 1019.7 hPa | 0 mm | - | 46 W/m² | - |
| 1788176056 | 23.33° C | 1% | 1019.7 hPa | 0 mm | - | 56 W/m² | - |
| 1788175751 | 22.78° C | 1% | 1019.7 hPa | 0 mm | - | 65 W/m² | - |
| 1788175446 | 22.78° C | 1% | 1019.5 hPa | 0 mm | - | 62 W/m² | - |
| 1788175141 | 22.22° C | 1% | 1019.4 hPa | 0 mm | - | 52 W/m² | - |
| 1788174837 | 22.22° C | 1% | 1019.3 hPa | 0 mm | - | 47 W/m² | - |
| 1788174533 | 22.22° C | 1% | 1019.3 hPa | 0 mm | - | 41 W/m² | - |
| 1788174232 | 22.22° C | 1% | 1019.4 hPa | 0 mm | - | 32 W/m² | - |
| 1788173931 | 22.22° C | 1% | 1019.4 hPa | 0 mm | - | 24 W/m² | - |
| 1788173627 | 22.22° C | 1% | 1019.2 hPa | 0 mm | - | 18 W/m² | - |
| 1788173322 | 22.22° C | 1% | 1019.1 hPa | 0 mm | - | 11 W/m² | - |
* Rain latest hour (hover to see other rain measurements)
** Current wind speed in m/s (hover to see current wind gust speed)